This is the latest recevied weather packets stored in our database for station/object SQ9CIE-4. If no packets are shown the sender has not sent any weather packets the latest 1 day(s).
| Time | Temp. | Humidity | Pressure | Rain* | Wind** | Luminosity | Snow |
|---|---|---|---|---|---|---|---|
| 1777983358 | 25° C | 23% | 1006.3 hPa | 0 mm | 7.6 m/s, 237° | 274 W/m² | - |
| 1777983060 | 26.11° C | 21% | 1006.4 hPa | 0 mm | 9.83 m/s, 235° | 284 W/m² | - |
| 1777982758 | 26.11° C | 21% | 1006.3 hPa | 0 mm | 8.94 m/s, 194° | 294 W/m² | - |
| 1777982458 | 26.11° C | 23% | 1006.4 hPa | 0 mm | 6.71 m/s, 215° | 413 W/m² | - |
| 1777982158 | 26.11° C | 23% | 1006.3 hPa | 0 mm | 4.92 m/s, 211° | 404 W/m² | - |
| 1777981858 | 25° C | 24% | 1006.5 hPa | 0 mm | 3.13 m/s, 205° | 296 W/m² | - |
| 1777981558 | 25° C | 23% | 1006.4 hPa | 0 mm | 6.26 m/s, 206° | 425 W/m² | - |
| 1777981258 | 25° C | 25% | 1005.8 hPa | 0 mm | 3.58 m/s, 206° | 365 W/m² | - |
| 1777980958 | 26.11° C | 24% | 1006.4 hPa | 0 mm | 7.15 m/s, 147° | 248 W/m² | - |
| 1777980658 | 26.11° C | 24% | 1006.5 hPa | 0 mm | 8.49 m/s, 159° | 435 W/m² | - |
| 1777980358 | 26.11° C | 24% | 1006.2 hPa | 0 mm | 7.6 m/s, 149° | 580 W/m² | - |
| 1777980058 | 26.11° C | 24% | 1006.5 hPa | 0 mm | 4.02 m/s, 143° | 674 W/m² | - |
| 1777979758 | 26.11° C | 24% | 1006.6 hPa | 0 mm | 10.73 m/s, 143° | 686 W/m² | - |
| 1777979458 | 26.11° C | 24% | 1006.4 hPa | 0 mm | 6.26 m/s, 166° | 750 W/m² | - |
| 1777979158 | 26.11° C | 25% | 1006.5 hPa | 0 mm | 2.68 m/s, 187° | 645 W/m² | - |
| 1777978858 | 26.11° C | 25% | 1006.6 hPa | 0 mm | 6.71 m/s, 239° | 732 W/m² | - |
| 1777978558 | 25° C | 27% | 1006.8 hPa | 0 mm | 7.6 m/s, 166° | 686 W/m² | - |
| 1777978258 | 25° C | 27% | 1007.1 hPa | 0 mm | 8.05 m/s, 154° | 652 W/m² | - |
| 1777977958 | 25° C | 27% | 1006.9 hPa | 0 mm | 6.71 m/s, 163° | 412 W/m² | - |
| 1777977658 | 25° C | 26% | 1007 hPa | 0 mm | 6.26 m/s, 127° | 724 W/m² | - |
| 1777977358 | 25° C | 27% | 1007.2 hPa | 0 mm | 8.05 m/s, 185° | 697 W/m² | - |
| 1777977058 | 25° C | 27% | 1007.1 hPa | 0 mm | 6.26 m/s, 153° | 466 W/m² | - |
| 1777976758 | 25° C | 27% | 1007.1 hPa | 0 mm | 8.05 m/s, 137° | 653 W/m² | - |
| 1777976458 | 25° C | 27% | 1007.2 hPa | 0 mm | 10.73 m/s, 143° | 667 W/m² | - |
| 1777976158 | 25° C | 28% | 1007.3 hPa | 0 mm | 7.6 m/s, 166° | 657 W/m² | - |
* Rain latest hour (hover to see other rain measurements)
** Current wind speed in m/s (hover to see current wind gust speed)